Helicity
154 126 114 97 66 53 48 48 49 59 64 68 75 85 103 122 143 154 139 204 239 247 224 285 263 240 235
114 82 61 53 50 56 52 57 52 66 82 83 91 117 135 144 150 167 179 186 185 235 244 247 248 280 227
81 59 52 63 72 76 86 84 70 86 84 101 109 115 120 121 128 157 180 206 171 169 176 188 182 162 180
73 66 73 77 86 94 85 88 81 82 88 100 104 107 106 114 125 132 147 160 187 197 169 149 150 167 177
89 81 82 84 76 73 74 65 79 92 77 70 78 78 87 81 80 95 108 118 127 137 136 130 119 123 127
85 83 84 73 67 64 64 71 64 67 65 70 84 75 73 54 66 69 80 99 106 121 125 113 105 96 86
76 68 70 62 60 62 62 64 61 49 61 58 70 61 56 60 68 76 84 93 104 108 111 114 112 109 103
73 63 65 67 64 53 48 49 54 56 59 64 65 63 59 64 76 91 97 108 118 113 105 105 101 95 96
54 59 63 66 60 69 73 72 66 66 73 76 79 81 71 88 102 127 108 102 105 108 104 107 127 120 120
53 45 63 65 73 59 60 69 64 77 69 89 89 99 95 84 94 90 100 134 135 129 130 146 124 120 122
48 45 53 59 66 69 74 76 82 80 81 91 94 98 99 94 95 89 110 113 98 107 116 118 118 129 140
57 51 55 59 64 67 68 73 84 85 77 87 94 100 104 99 96 101 78 104 119 128 119 113 109 106 100
56 46 44 54 84 79 74 52 51 56 61 64 95 91 99 95 96 113 121 139 130 139 121 106 112 131 125
63 57 71 83 71 79 81 87 116 90 53 60 86 105 99 99 99 113 135 111 122 124 119 118 131 118 106
88 78 77 88 76 86 94 114 126 127 115 108 100 101 126 132 128 123 130 150 151 137 134 109 122 129 129
99 95 88 90 90 104 123 130 134 128 119 125 130 123 114 91 95 104 119 141 158 143 133 105 79 110 114
125 124 128 126 101 120 119 129 129 125 116 133 137 139 121 113 103 83 141 158 149 143 145 139 91 79 78
Wind_Speed
32 35 37 35 38 38 38 37 39 40 42 42 44 45 45 46 47 46 46 44 39 35 23 17 14 8 6
31 33 32 34 34 35 37 36 37 40 41 44 44 44 44 45 46 45 42 40 35 31 25 23 20 18 16
27 30 31 33 34 36 36 36 39 42 40 43 43 44 44 43 43 43 43 40 36 33 30 27 27 27 30
28 30 32 34 35 38 37 41 42 44 43 43 43 43 43 41 41 43 42 40 38 35 33 33 33 33 34
28 31 33 37 39 39 40 40 38 44 44 44 42 42 40 41 42 44 43 40 38 36 35 34 32 33 36
31 33 34 35 39 41 41 41 38 41 47 40 41 39 41 41 43 46 43 39 37 37 37 37 36 35 35
30 32 34 36 37 40 40 40 39 42 41 35 40 38 42 42 42 45 42 40 40 39 39 39 38 38 39
31 32 33 33 35 37 38 39 38 36 39 35 40 38 43 40 40 43 42 42 43 42 40 41 41 39 38
32 34 35 35 35 35 36 38 36 35 41 38 39 44 41 38 40 44 45 45 43 44 43 43 44 41 43
35 36 36 36 35 35 32 35 35 37 37 41 41 44 41 37 41 47 45 46 47 46 47 47 46 45 46
36 36 36 35 34 35 36 34 34 36 37 40 40 43 42 43 41 42 47 52 52 50 50 51 50 49 51
38 38 36 33 33 34 36 36 36 35 37 38 38 41 45 46 42 45 56 59 45 53 51 50 50 51 51
42 41 38 34 32 36 37 35 35 34 35 36 36 38 37 39 45 51 57 50 54 44 50 54 52 51 54
41 42 36 35 36 37 37 36 39 40 38 37 36 33 36 39 44 49 48 48 45 54 54 52 50 47 43
41 39 36 36 37 36 37 38 41 44 45 45 42 38 37 41 48 46 47 45 44 49 51 55 49 43 44
38 37 38 39 39 40 39 40 42 43 45 47 46 49 52 48 31 43 44 45 45 47 47 55 56 50 48
33 36 36 39 41 42 42 42 43 44 46 45 45 49 55 58 49 37 44 45 46 50 50 52 55 54 54
Wind_Direction
334 335 338 346 346 351 354 359 356 350 346 345 345 347 346 341 341 345 350 358 3 12 35 69 92 46 3
332 336 343 344 346 349 351 356 359 353 350 345 343 345 344 341 339 339 342 347 354 357 359 357 350 343 334
335 342 343 344 344 343 348 350 350 348 349 347 345 344 341 342 341 340 340 338 338 339 338 337 334 331 327
338 339 339 338 339 338 340 340 339 341 343 343 344 343 342 346 345 340 338 338 337 338 334 328 325 323 321
334 335 333 330 331 335 335 338 342 340 338 339 342 344 346 345 342 338 336 335 334 333 333 333 331 326 320
332 329 332 333 332 333 333 336 340 338 336 344 345 348 346 345 343 338 337 337 335 333 329 328 327 326 323
337 334 334 335 335 332 333 334 336 337 342 348 346 347 344 343 345 343 344 342 339 335 331 328 325 322 319
345 343 344 344 339 336 335 335 339 346 347 349 343 346 341 343 346 346 345 344 342 341 337 333 329 327 325
347 345 345 343 341 339 337 336 340 343 343 345 344 341 342 344 345 344 341 341 341 338 336 334 332 330 325
341 340 345 344 344 343 345 340 340 340 345 342 342 342 340 342 340 339 339 339 336 336 334 333 329 324 320
340 340 342 343 345 344 344 343 341 339 344 344 342 341 339 336 337 337 336 334 332 332 332 329 326 324 318
336 335 338 342 343 343 342 341 341 340 339 341 340 339 336 334 334 334 329 329 337 332 331 331 328 324 319
326 329 332 339 345 341 338 340 342 343 341 339 338 336 336 334 331 330 331 335 332 337 337 331 328 325 320
325 327 334 338 339 339 338 338 336 336 340 339 337 336 333 330 329 328 331 332 334 331 332 331 329 327 325
323 327 331 334 335 337 335 334 330 331 333 334 335 331 328 329 327 328 329 329 330 332 333 329 329 328 324
322 324 325 328 330 332 331 328 327 329 330 330 331 328 328 329 322 327 329 329 331 331 332 327 324 324 322
321 321 323 323 325 325 326 326 325 326 326 328 328 325 324 324 333 331 328 332 333 330 328 325 322 322 321